OBJECT AZ, 43805

Orbit data source: Space-Track

You're viewing an Uncataloged Satellite

Recently launched and/or uncataloged satellites may have evolving metadata. Metadata may include but not limited to: Owner, Maufacturer, Bus, Motor, and Mission.

OBJECT AZ, 43805 is a satellite in SSO that was launched on Mon, 03 Dec 2018 UTC via an FALCON 9 launch vehicle from the Air Force Western Test Range (AFWTR). Unknown objects in Earth's orbit typically refer to objects detected orbiting the Earth but have not yet been identified or cataloged. These objects could be anything from previously untracked satellites, spent rocket stages, debris from satellite collisions, or even natural meteoroids temporarily captured by Earth's gravity.

Loading next visibility...
Identifier
43805, 2018-099AZ
Orbit
SSO
Country
Flag of TBDTBD
Related business
Flag of KZAl-Farabi Kazakh National University (KZ)
Manufacturer
Al-Farabi KNU
Mission
Operational Amateur Technology
Bus & Motor
CUBESAT 3U, Unknown motor
Mass
4 kg wet, 4 kg dry
Launch date (UTC)
2018-12-03 (7 years ago)
Launch vehicle
FALCON 9
Launch site
Air Force Western Test Range (AFWTR)
Object type
Unknown
Shape & HBR
Box, 0.1 m
Radar Cross Section
0.035 m², Small (<0.1 m²)

Expand to show TLE details & history
Last TLE update: 15 hours ago

TLE from 15 hours ago
0 OBJECT AZ
1 43805U 18099AZ  25340.62843499  .00093839  00000-0  17186-2 0  9993
2 43805  97.4301  47.6762 0004534 186.4794 173.6399 15.48979607384877
Epoch: 2025-12-06T15:04Z
TLE epoch observation values (Epoch: 2025-12-06T15:04:56.783Z)
Latitude
0.00001°
Longitude
105.78616°
Altitude
425.903 km
Speed
7.654 km/s
True Right ascension
03h 10m 42s
True Declination
0° 00' 00"
Sunlit
Object was in full shadow at epoch
Visualization orbit readout
Latitude
Unknown
Longitude
Unknown
Altitude
Unknown
Speed
Unknown
Apparent Right ascension
Unknown
Apparent Declination
Unknown
Sunlit
N/A
Visualization observer readout
Local Sidereal Time
04:04:34
Azimuth
Unknown
Elevation
Unknown
Doppler factor
Unknown
Orbital elements
Apogee altitude
419.719 km
Perigee altitude
413.557 km
Semi-major axis
6,794.775 km
Eccentricity
0.00045
Inclination
97.4301°
RAAN
47.6762°
Arg. of periapsis
186.4794°
True anomaly
173.64565°
Mean anomaly
173.6399°
Eccentric anomaly
173.64278°
Mean motion
3.87508 °/min
Orbital period
92.9 mins
BSTAR
0.0017186
Loading maneuver chart data...
Computing Atmospheric mass density...
Loading historical data...
Loading historical data...
Loading historical data...
Loading historical data...
Loading historical data...
Loading historical data...
Loading historical data...

Documentation

Showing up to 5 results
|